TimeEST,TemperatureF,Dew PointF,Humidity,Sea Level PressureIn,VisibilityMPH,Wind Direction,Wind SpeedMPH,Gust SpeedMPH,PrecipitationIn,Events,Conditions,WindDirDegrees,DateUTC
12:11 AM,33.8,28.4,81,29.62,10.0,WNW,8.1,-,N/A,,Overcast,290,2013-02-20 05:11:00
12:53 AM,32.0,26.1,79,29.65,10.0,West,9.2,-,0.00,,Overcast,270,2013-02-20 05:53:00
1:53 AM,30.9,24.1,76,29.67,10.0,West,4.6,-,N/A,,Overcast,270,2013-02-20 06:53:00
2:13 AM,30.2,24.8,80,29.65,10.0,Variable,3.5,-,N/A,,Overcast,0,2013-02-20 07:13:00
2:26 AM,30.2,24.8,80,29.66,10.0,West,4.6,-,N/A,,Overcast,270,2013-02-20 07:26:00
2:53 AM,28.9,24.1,82,29.69,10.0,Calm,Calm,-,N/A,,Overcast,0,2013-02-20 07:53:00
3:53 AM,28.0,19.9,72,29.71,10.0,WSW,3.5,-,N/A,,Overcast,250,2013-02-20 08:53:00
4:53 AM,27.0,19.9,75,29.71,10.0,SW,5.8,-,N/A,,Overcast,220,2013-02-20 09:53:00
5:53 AM,25.0,18.0,75,29.70,10.0,SW,6.9,-,N/A,,Mostly Cloudy,220,2013-02-20 10:53:00
6:53 AM,26.1,19.0,75,29.71,10.0,SSW,6.9,-,N/A,,Overcast,210,2013-02-20 11:53:00
7:53 AM,26.1,18.0,71,29.71,10.0,SW,8.1,16.1,N/A,,Overcast,230,2013-02-20 12:53:00
8:53 AM,26.1,17.1,69,29.72,10.0,WSW,11.5,17.3,N/A,,Mostly Cloudy,240,2013-02-20 13:53:00
9:53 AM,26.1,17.1,69,29.72,10.0,WSW,11.5,-,N/A,,Overcast,250,2013-02-20 14:53:00
10:53 AM,28.0,16.0,61,29.73,10.0,WSW,8.1,19.6,N/A,,Overcast,250,2013-02-20 15:53:00
11:53 AM,28.0,15.1,58,29.72,10.0,West,13.8,20.7,N/A,,Overcast,270,2013-02-20 16:53:00
12:53 PM,28.0,12.9,53,29.71,10.0,WSW,13.8,20.7,N/A,,Overcast,250,2013-02-20 17:53:00
1:53 PM,26.6,17.6,69,29.70,3.0,West,11.5,21.9,N/A,Snow,Light Snow,280,2013-02-20 18:53:00
2:53 PM,28.0,12.9,53,29.74,10.0,WNW,10.4,19.6,0.00,,Overcast,290,2013-02-20 19:53:00
3:53 PM,26.6,14.0,59,29.73,10.0,WNW,9.2,-,N/A,,Overcast,290,2013-02-20 20:53:00
4:53 PM,26.1,12.9,58,29.77,10.0,West,11.5,18.4,0.00,,Overcast,260,2013-02-20 21:53:00
5:53 PM,26.1,10.9,53,29.79,10.0,Variable,5.8,-,N/A,,Overcast,0,2013-02-20 22:53:00
6:53 PM,25.0,10.9,55,29.81,10.0,WSW,4.6,-,N/A,,Overcast,240,2013-02-20 23:53:00
7:53 PM,24.1,12.0,60,29.82,10.0,SSW,8.1,-,N/A,,Mostly Cloudy,210,2013-02-21 00:53:00
8:53 PM,25.0,12.0,58,29.83,10.0,West,11.5,18.4,N/A,,Scattered Clouds,270,2013-02-21 01:53:00
9:53 PM,24.8,12.2,59,29.81,10.0,WSW,8.1,-,N/A,,Scattered Clouds,240,2013-02-21 02:53:00
10:53 PM,24.1,14.0,65,29.85,9.0,WSW,10.4,19.6,0.00,Snow,Light Snow,240,2013-02-21 03:53:00
11:53 PM,23.0,15.1,72,29.85,9.0,WSW,11.5,19.6,0.00,,Overcast,240,2013-02-21 04:53:00